{"data":{"norad_id":58129,"epoch":"2026-09-19T23:52:17.404032Z","epoch_age_seconds":184011,"freshness":"STALE","line1":"1 58129U 23162M   26262.99464588  .00000102  00000+0  13229-4 0  9993","line2":"2 58129  43.0029 115.1370 0001441 266.6778  93.3909 15.27576089162029","mean_motion":15.27576089,"eccentricity":0.0001441,"inclination_deg":43.0029,"raan_deg":115.137,"arg_perigee_deg":266.6778,"mean_anomaly_deg":93.3909,"bstar":1.3229e-5,"rev_number":16202,"period_min":94.266990061534,"perigee_km":482.07210840162,"apogee_km":484.0495056096,"semimajor_km":6861.1978070056,"source":"CELESTRAK","updated_at":"2026-09-21T09:00:33.792741Z"}}